TimeEST,TemperatureF,Dew PointF,Humidity,Sea Level PressureIn,VisibilityMPH,Wind Direction,Wind SpeedMPH,Gust SpeedMPH,PrecipitationIn,Events,Conditions,WindDirDegrees,DateUTC
12:53 AM,46.9,46.0,97,30.27,10.0,Calm,Calm,-,N/A,,Partly Cloudy,0,2012-12-03 05:53:00
1:53 AM,46.9,46.0,97,30.27,10.0,Calm,Calm,-,N/A,,Clear,0,2012-12-03 06:53:00
2:53 AM,46.0,45.0,96,30.27,10.0,Calm,Calm,-,N/A,,Clear,0,2012-12-03 07:53:00
3:53 AM,45.0,43.0,93,30.27,10.0,Calm,Calm,-,N/A,,Clear,0,2012-12-03 08:53:00
4:53 AM,44.1,43.0,96,30.28,10.0,Calm,Calm,-,N/A,,Clear,0,2012-12-03 09:53:00
5:53 AM,44.1,43.0,96,30.29,10.0,Calm,Calm,-,N/A,,Clear,0,2012-12-03 10:53:00
6:53 AM,43.0,41.0,93,30.29,10.0,Calm,Calm,-,N/A,,Partly Cloudy,0,2012-12-03 11:53:00
7:53 AM,43.0,42.1,97,30.30,10.0,Calm,Calm,-,N/A,Fog,Patches of Fog,0,2012-12-03 12:53:00
8:53 AM,48.9,46.0,90,30.31,10.0,Calm,Calm,-,N/A,,Scattered Clouds,0,2012-12-03 13:53:00
9:53 AM,54.0,48.9,83,30.31,10.0,Calm,Calm,-,N/A,,Scattered Clouds,0,2012-12-03 14:53:00
10:53 AM,61.0,51.1,70,30.32,10.0,Calm,Calm,-,N/A,,Scattered Clouds,0,2012-12-03 15:53:00
11:53 AM,66.9,52.0,59,30.29,10.0,Variable,3.5,-,N/A,,Scattered Clouds,0,2012-12-03 16:53:00
12:53 PM,71.1,50.0,47,30.25,10.0,South,9.2,18.4,N/A,,Mostly Cloudy,180,2012-12-03 17:53:00
1:53 PM,71.6,48.2,43,30.23,10.0,South,9.2,17.3,N/A,,Mostly Cloudy,180,2012-12-03 18:53:00
2:53 PM,71.1,48.0,44,30.21,10.0,South,11.5,-,N/A,,Mostly Cloudy,180,2012-12-03 19:53:00
3:53 PM,71.1,48.9,45,30.20,10.0,South,11.5,16.1,N/A,,Mostly Cloudy,170,2012-12-03 20:53:00
4:53 PM,70.0,48.9,47,30.21,10.0,South,5.8,-,N/A,,Mostly Cloudy,190,2012-12-03 21:53:00
5:53 PM,66.0,48.9,54,30.22,10.0,Calm,Calm,-,N/A,,Mostly Cloudy,0,2012-12-03 22:53:00
6:53 PM,59.0,48.9,69,30.22,10.0,Calm,Calm,-,N/A,,Mostly Cloudy,0,2012-12-03 23:53:00
7:53 PM,59.0,50.0,72,30.23,10.0,Calm,Calm,-,N/A,,Mostly Cloudy,0,2012-12-04 00:53:00
8:53 PM,59.0,51.1,75,30.22,10.0,Calm,Calm,-,N/A,,Mostly Cloudy,0,2012-12-04 01:53:00
9:53 PM,54.0,50.0,86,30.23,10.0,Calm,Calm,-,N/A,,Mostly Cloudy,0,2012-12-04 02:53:00
10:53 PM,55.0,50.0,83,30.22,10.0,Calm,Calm,-,N/A,,Scattered Clouds,0,2012-12-04 03:53:00
11:53 PM,52.0,48.9,89,30.22,10.0,Calm,Calm,-,N/A,,Mostly Cloudy,0,2012-12-04 04:53:00